Weather observations for the past three days for
Nome, Nome Airport
Imperial (Metric)
Date Time (akdt) Wind (mph) Vis. (mi.) Weather Sky Cond. Temperature (ºF) Relative Humidity Wind Chill (°F) Heat Index (°F) Pressure Precipitation (in)
Air Dwpt 6 hour altimeter (in) sea level (mb) 1 hr 3 hr 6 hr
Max. Min.
18 02:53 W 8 10.00 Overcast OVC007 46 44.1 93% 42 29.88 1011.8
18 01:53 W 9 10.00 Overcast OVC007 46.9 44.1 90% 43 29.87 1011.6
18 00:53 W 6 10.00 Overcast OVC009 46.9 43 86% 45 29.87 1011.4
17 23:53 W 9 10.00 Overcast OVC009 46.9 43 86% 43 29.87 1011.4
17 22:53 W 9 10.00 Overcast OVC010 46.9 43 86% 43 29.87 1011.4
17 21:53 W 8 10.00 Overcast BKN012 OVC085 48 43 53.1 48 83% 45 29.86 1011.3
17 20:53 SW 9 10.00 Overcast FEW010 OVC100 48.9 44.1 83% 45 29.86 1011.1
17 19:53 SW 10 10.00 Mostly Cloudy BKN110 50 44.1 80% 46 29.86 1011.3
17 18:53 W 10 10.00 Partly Cloudy SCT120 51.1 45 80% 29.87 1011.4
17 17:53 W 17 10.00 Partly Cloudy SCT120 52 44.1 75% 29.85 1010.9
17 16:53 W 16 10.00 Fair CLR 52 43 72% 29.86 1011.0
17 15:53 W 21 10.00 Fair and Breezy CLR 52 44.1 57.9 50 75% 29.86 1011.1
17 14:53 SW 18 10.00 Fair CLR 52 45 77% 29.86 1011.1
17 13:53 W 18 10.00 Fair CLR 54 45 72% 29.85 1010.6
17 12:53 W 20 G 25 10.00 Fair CLR 55.9 45 67% 29.85 1010.8
17 11:53 W 9 10.00 Fair CLR 55 44.1 67% 29.85 1010.6
17 10:53 Vrbl 6 10.00 Fair CLR 54 44.1 69% 29.84 1010.6
17 09:53 Calm 10.00 Fair CLR 50 44.1 50 41 80% 29.84 1010.4
17 08:53 Calm 10.00 Fair CLR 45 44.1 97% 29.83 1010.3
17 07:53 NW 7 10.00 Fair CLR 42.1 39 89% 38 29.83 1010.2
17 06:53 W 7 10.00 Fair CLR 42.1 39.9 92% 38 29.83 1010.1
17 05:53 W 5 10.00 Fair CLR 41 39 93% 38 29.83 1010.1
17 04:53 N 3 10.00 Overcast OVC100 43 39.9 89% 29.83 1010.1
17 03:53 N 3 10.00 Overcast OVC100 44.1 41 55.9 43 89% 29.83 1010.1
17 02:53 W 5 10.00 Mostly Cloudy BKN100 43 41 93% 41 29.83 1010.1
17 01:53 NW 3 10.00 Fair CLR 46 43 89% 29.82 1009.8
17 00:53 NW 5 10.00 Partly Cloudy SCT055 48 45 89% 47 29.82 1009.7
16 23:53 NW 5 10.00 Mostly Cloudy BKN048 53.1 48.9 86% 29.8 1009.2
16 22:53 NW 3 10.00 Overcast OVC055 55 48.9 80% 29.8 1009.0
16 21:53 NW 5 10.00 Overcast OVC045 55 48 55 51.1 77% 29.79 1008.7
16 20:53 W 3 10.00 Overcast OVC065 53.1 48 83% 29.78 1008.5
16 19:53 SW 6 10.00 Mostly Cloudy BKN065 52 46.9 83% 29.78 1008.3
16 18:53 W 8 10.00 Overcast SCT040 OVC060 52 46 80% 29.78 1008.5
16 17:53 SW 7 10.00 Overcast FEW045 OVC055 52 44.1 75% 29.78 1008.3
16 16:53 SW 7 10.00 Mostly Cloudy BKN050 BKN060 51.1 44.1 77% 29.77 1008.3
16 15:53 S 6 10.00 Mostly Cloudy SCT023 BKN065 51.1 45 53.1 46.9 80% 29.77 1008.1
16 14:53 SE 8 10.00 Overcast OVC022 51.1 44.1 77% 29.76 1007.7
16 13:53 SE 9 10.00 Overcast SCT021 SCT040 OVC060 52 45 77% 29.75 1007.3
16 12:53 E 9 10.00 Overcast BKN020 BKN030 OVC040 52 45 77% 29.74 1007.0
16 11:53 E 10 10.00 Overcast FEW021 SCT028 OVC034 52 46 80% 29.73 1006.7
16 10:53 E 6 10.00 Mostly Cloudy FEW015 SCT019 BKN028 48.9 46.9 93% 47 29.71 1006.2
16 08:53 NE 3 3.00 Fog/Mist FEW007 SCT013 OVC019 46 45 96% 29.7 1005.7
16 07:53 E 7 10.00 Overcast OVC029 45 43 93% 42 29.69 1005.3
16 06:53 E 5 10.00 Overcast SCT016 BKN050 OVC090 44.1 42.1 93% 42 29.68 1005.2 0.01 0.03
16 05:53 Calm 10.00 Light Rain FEW010 OVC048 44.1 43 96% 29.69 1005.3 0.01
16 04:53 Calm 10.00 Light Rain OVC034 44.1 42.1 93% 29.69 1005.3 0.01
16 03:53 Calm 10.00 Light Rain OVC039 44.1 43 48.9 44.1 96% 29.68 1005.2 0.02 0.08
16 02:53 NW 3 10.00 Light Rain OVC047 44.1 43 96% 29.68 1005.2 0.03
16 01:53 W 7 10.00 Light Rain OVC050 44.1 42.1 93% 41 29.68 1005.2 0.03
16 00:53 W 7 10.00 Light Rain OVC060 45 42.1 90% 42 29.68 1004.9
15 23:53 W 6 10.00 Light Rain OVC075 46 42.1 86% 44 29.67 1004.8
15 22:53 W 8 10.00 Overcast OVC100 48 43 83% 45 29.68 1004.9
15 21:53 NW 8 10.00 Overcast OVC110 48.9 42.1 54 48.9 77% 46 29.67 1004.8
15 20:53 W 15 10.00 Partly Cloudy SCT120 50 43 77% 45 29.67 1004.7
15 19:53 W 13 10.00 Partly Cloudy FEW045 SCT110 51.1 43 74% 29.67 1004.6
15 18:53 W 14 10.00 Overcast OVC047 53.1 44.1 72% 29.67 1004.7
15 17:53 W 13 10.00 Overcast OVC050 54 44.1 69% 29.66 1004.4
15 16:53 W 10 10.00 Overcast OVC038 53.1 41 64% 29.66 1004.3
15 15:53 W 10 10.00 Overcast BKN034 OVC048 53.1 42.1 54 51.1 66% 29.65 1004.1
15 14:53 SW 8 10.00 Overcast OVC034 52 43 72% 29.65 1003.9
15 13:53 SW 9 10.00 Overcast BKN037 OVC045 53.1 42.1 66% 29.63 1003.4
15 12:53 NE 3 10.00 Overcast OVC041 54 41 62% 29.62 1002.9
15 11:53 E 7 10.00 Overcast OVC038 53.1 42.1 66% 29.61 1002.6
15 10:53 E 9 10.00 Mostly Cloudy BKN037 53.1 41 64% 29.6 1002.2
15 09:53 E 9 10.00 Overcast OVC035 51.1 41 52 44.1 69% 29.59 1001.9
15 08:53 NE 7 10.00 Overcast OVC036 50 42.1 74% 48 29.57 1001.5
15 07:53 NE 8 10.00 Overcast OVC033 48.9 41 74% 46 29.56 1001.0
15 06:53 NE 9 10.00 Overcast OVC030 48 42.1 80% 44 29.55 1000.8
15 05:53 NE 6 10.00 Overcast OVC031 45 41 86% 42 29.55 1000.5
15 04:53 NE 5 10.00 Mostly Cloudy BKN030 45 41 86% 43 29.53 1000.0
Date Time (akdt) Wind (mph) Vis. (mi.) Weather Sky Cond. Air Dwpt Max. Min. Relative Humidity Wind Chill (°F) Heat Index (°F) altimeter (in) sea level (mb) 1 hr 3 hr 6 hr
6 hour
Temperature (ºF) Pressure Precipitation (in)